Location: Unspecified
(50.7693°N, 0.0000°E)
Time: 10:49:37
(UTC+00:00)

SR - Pass Details

Date: 02 July 2019
Orbit: 580 x 875 km, 66.7° (Epoch: 16 July)

Event Time Altitude Azimuth Distance (km) Brightness Sun altitude
Rises 00:00:13 0° 158° (SSE) 2,787 - -16.2°
Reaches altitude 10° 00:03:52 10° 125° (SE) 1,905 - -16.2°
Exits shadow 00:04:12 11° 121° (ESE) 1,867 ? -16.2°
Maximum altitude 00:05:17 12° 105° (ESE) 1,818 ? -16.2°
Drops below altitude 10° 00:06:44 10° 86° (E) 1,930 ? -16.2°
Sets 00:10:29 0° 53° (NE) 2,884 ? -16.1°
